Find WorldView Legion 6

NORAD ID: 62901 Int'l Des: 2025-025 Owner: MAXARI Country: US operational
LEOCIRCULAR

Live Position

Loading 3D Globe...

About WorldView Legion 6

Description loading...

Upcoming Passes

Passes for default location (London). Set your location on the main map for personalized predictions.

Altitude History

Loading altitude history...

Two-Line Element Set

1 62901U 25025B 26103.93787487 .00002097 00000-0 12242-3 0 9999
2 62901 45.0010 194.9612 0006301 123.2410 236.9073 15.15525923 65880
Epoch: Apr 13, 2026 • Age: 14 hours

Current Status

Altitude 521.7 km
Velocity 7.60 km/s
Sub-Earth Point 1.09°N, 158.86°E
Launch Date Feb 4, 2025
Age 1.1 years
Type earth observation

Technical Details

Classification Payload
Mass 700.00 kg
Dry Mass 630.00 kg
Total Mass 700.00 kg
Length 3.00 m
Diameter 2.00 m
Span 5.00 m
Shape Box + panel
Manufacturer MAXSI
Bus Type Legion
Phase Status In Orbit
Owner/State MAXARI/US

Most Searched